Home   Weather   Sidney   Past weeks

Flag for USA Past Weather in Sidney, Montana, USA — Yesterday and Last 2 Weeks

Now
34 °F

Overcast.


Feels Like: 25 °F
Forecast: 27 / 39 °F
Wind: 13 mph from Northeast

Location: Sidney-Richland

Current Time: Apr 24, 2017 at 8:57:24 pm

Latest Report: Apr 24, 2017 at 7:56 pm


Visibility: 10 mi

Pressure: 29.83 "Hg (27.71 "Hg at 591m altitude)

Humidity: 79%

Dew Point: 28 °F

Location of SidneyLocation

Past Weather in Sidney — Graph

°F

Sidney Temperature Yesterday

Maximum temperature yesterday: 40 °F (at 12:56 am)
Minimum temperature yesterday: 31 °F (at 10:56 pm)
Average temperature yesterday: 35 °F

High & Low Weather Summary for the Past Weeks

 TemperatureHumidityPressure
High72 °F (Apr 13, 3:56 pm)100% (Apr 20, 1:06 am)30.36 "Hg (Apr 20, 1:06 am)
Low17 °F (Apr 17, 3:56 am)19% (Apr 11, 2:56 pm)29.45 "Hg (Apr 14, 4:56 am)
Average44 °F68%30.04 "Hg
* Reported Apr 9 6:56 pm — Apr 24 6:56 pm, Sidney, Weather by CustomWeather, © 2017

Note: Actual official high and low records may vary slightly from our data, if they occured in-between our weather recording intervals... More about our weather records

Advertising

Sidney Weather History for the Previous 24 Hours

Scroll right to see more
 ConditionsComfort  
Time TempWeatherWind HumidityBarometerVisibility
6:56 pm
Mon, Apr 24
35 °FOvercast.15 mph75%29.81 "Hg10 mi
5:56 pm37 °FOvercast.12 mph73%29.80 "Hg10 mi
4:56 pm38 °FOvercast.10 mph73%29.79 "Hg10 mi
3:56 pm38 °FOvercast.13 mph76%29.78 "Hg10 mi
2:56 pm38 °FOvercast.9 mph76%29.78 "Hg10 mi
1:56 pm39 °FOvercast.9 mph76%29.76 "Hg10 mi
12:56 pm37 °FOvercast.9 mph79%29.77 "Hg10 mi
11:56 am37 °FOvercast.7 mph82%29.77 "Hg10 mi
11:11 am36 °FOvercast.8 mph87%29.70 "Hg10 mi
10:56 am36 °FLow clouds.8 mph85%29.78 "Hg10 mi
9:56 am34 °FLow clouds.7 mph88%29.78 "Hg10 mi
7:56 am32 °FLight snow. Low clouds.6 mph96%29.79 "Hg9 mi
6:56 am32 °FLight snow. Low clouds.6 mph92%29.79 "Hg10 mi
5:56 am32 °FLight snow. Low clouds.7 mph92%29.78 "Hg10 mi
4:56 am32 °FLight snow. Low clouds.6 mph92%29.78 "Hg10 mi
4:09 am32 °FLight snow. Low clouds.7 mph93%29.71 "Hg8 mi
3:34 am32 °FLight snow. Mostly cloudy.6 mph93%29.72 "Hg7 mi
2:56 am32 °FLight snow. Low clouds.7 mph92%29.79 "Hg10 mi
1:56 am32 °FLight snow. Low clouds.9 mph92%29.81 "Hg9 mi
12:56 am32 °FLight snow. Low clouds.10 mph92%29.84 "Hg9 mi
11:56 pm
Sun, Apr 23
31 °FLight snow. Low clouds.10 mph96%29.87 "Hg10 mi
10:56 pm31 °FLow clouds.13 mph92%29.88 "Hg10 mi
9:56 pm32 °FLow clouds.13 mph92%29.87 "Hg10 mi
8:56 pm33 °FLow clouds.12 mph88%29.86 "Hg10 mi
Weather by CustomWeather, © 2017

See weather overviewHow to use our weather pages